M I D A S
Marine Information and Data Acquisition System
Tripno 1543 of the Zeeleeuw from 2008-08-25 07:15:02 to 2008-08-25 13:13:50
Back to CruiseResearch ActivitiesStationsMapUnderway DataData graphs

EquipmentUnitsComments
TimeDGPSUTC
LatitudeDGPSDM.mWGS84
LongitudeDGPSDM.mWGS84
SpeedMeteo Stationm/sRelative wind speed
DirectionMeteo StationdegRelative wind direction
TemperatureMeteo Stationdeg CelciusAir temperature
PressureMeteo StationPaAtmospheric pressure
HumidityMeteo Station%Relative humidity
Missing or incorrect values are displayed as -999
Metereological data collected by the RV Zeeleeuw from 2008-08-25 07:15:39 to 2008-08-25 13:24:30
                                                                                    Next 1000 lines
Time Latitude Longitude Speed Direction Temperature Pressure Humidity
2008-08-25 07:15:49 51°13.624 2°56.046 -999 -999 -999 -999 -999
2008-08-25 07:15:54 51°13.624 2°56.044 -999 -999 -999 -999 -999
2008-08-25 07:15:59 51°13.625 2°56.042 -999 -999 -999 -999 -999
2008-08-25 07:16:04 51°13.626 2°56.039 -999 -999 -999 -999 -999
2008-08-25 07:16:09 51°13.626 2°56.036 -999 -999 -999 -999 -999
2008-08-25 07:16:14 51°13.628 2°56.032 -999 -999 -999 -999 -999
2008-08-25 07:16:19 51°13.629 2°56.027 -999 -999 -999 -999 -999
2008-08-25 07:16:24 51°13.63 2°56.022 -999 -999 -999 -999 -999
2008-08-25 07:16:29 51°13.631 2°56.016 -999 -999 -999 -999 -999
2008-08-25 07:16:34 51°13.633 2°56.009 -999 -999 -999 -999 -999
2008-08-25 07:16:39 51°13.635 2°56.002 -999 -999 -999 -999 -999
2008-08-25 07:16:44 51°13.637 2°55.995 -999 -999 -999 -999 -999
2008-08-25 07:16:49 51°13.639 2°55.987 -999 -999 -999 -999 -999
2008-08-25 07:16:54 51°13.641 2°55.979 -999 -999 -999 -999 -999
2008-08-25 07:16:59 51°13.643 2°55.97 -999 -999 -999 -999 -999
2008-08-25 07:17:04 51°13.645 2°55.962 -999 -999 -999 -999 -999
2008-08-25 07:17:09 51°13.647 2°55.953 -999 -999 -999 -999 -999
2008-08-25 07:17:14 51°13.65 2°55.944 -999 -999 -999 -999 -999
2008-08-25 07:17:19 51°13.652 2°55.934 -999 -999 -999 -999 -999
2008-08-25 07:17:24 51°13.654 2°55.924 -999 -999 -999 -999 -999
2008-08-25 07:17:29 51°13.656 2°55.915 -999 -999 -999 -999 -999
2008-08-25 07:17:34 51°13.659 2°55.905 -999 -999 -999 -999 -999
2008-08-25 07:17:39 51°13.661 2°55.896 -999 -999 -999 -999 -999
2008-08-25 07:17:44 51°13.664 2°55.886 -999 -999 -999 -999 -999
2008-08-25 07:17:49 51°13.666 2°55.877 -999 -999 -999 -999 -999
2008-08-25 07:17:54 51°13.668 2°55.868 -999 -999 -999 -999 -999
2008-08-25 07:17:59 51°13.671 2°55.859 -999 -999 -999 -999 -999
2008-08-25 07:18:04 51°13.673 2°55.85 -999 -999 -999 -999 -999
2008-08-25 07:18:09 51°13.675 2°55.842 -999 -999 -999 -999 -999
2008-08-25 07:18:14 51°13.676 2°55.833 -999 -999 -999 -999 -999
2008-08-25 07:18:19 51°13.678 2°55.825 -999 -999 -999 -999 -999
2008-08-25 07:18:24 51°13.68 2°55.818 -999 -999 -999 -999 -999
2008-08-25 07:18:29 51°13.681 2°55.81 -999 -999 -999 -999 -999
2008-08-25 07:18:34 51°13.682 2°55.803 -999 39 -999 -999 -999
2008-08-25 07:18:39 51°13.684 2°55.797 3.6 34 -999 -999 -999
2008-08-25 07:18:44 51°13.685 2°55.79 3.4 32 -999 -999 -999
2008-08-25 07:18:49 51°13.686 2°55.784 4.3 37 -999 -999 -999
2008-08-25 07:18:54 51°13.687 2°55.779 4.7 32 -999 -999 -999
2008-08-25 07:18:59 51°13.687 2°55.774 4.9 36 15.1 -999 83
2008-08-25 07:19:04 51°13.688 2°55.77 4.9 33 15.1 -999 83
2008-08-25 07:19:08 51°13.689 2°55.767 5.4 32 15.1 -999 100
2008-08-25 07:19:13 51°13.689 2°55.765 4.7 35 15.1 -999 100
2008-08-25 07:19:18 51°13.69 2°55.764 3.6 37 15.1 101380 100
2008-08-25 07:19:23 51°13.691 2°55.763 3 33 15.1 101380 100
2008-08-25 07:19:28 51°13.691 2°55.764 5.3 27 15.1 101390 100
2008-08-25 07:19:33 51°13.693 2°55.765 4.2 28 15.1 101390 100
2008-08-25 07:19:38 51°13.694 2°55.766 4.7 29 15.1 101390 100
2008-08-25 07:19:43 51°13.695 2°55.767 4.6 74 15.1 101390 100
2008-08-25 07:19:47 51°13.695 2°55.767 3.1 22 15.1 101390 100
2008-08-25 07:19:52 51°13.696 2°55.766 3 81 15.1 101390 100
2008-08-25 07:19:57 51°13.696 2°55.765 3.5 28 15.1 101390 100
2008-08-25 07:20:02 51°13.695 2°55.763 3.4 75 15.1 101390 100
2008-08-25 07:20:07 51°13.694 2°55.761 2.4 27 15.1 101390 100
2008-08-25 07:20:12 51°13.693 2°55.76 2.7 81 15.1 101390 100
2008-08-25 07:20:16 51°13.692 2°55.758 2.6 27 15.1 101390 -999
2008-08-25 07:20:21 51°13.691 2°55.757 2.7 78 15.1 101390 -999
2008-08-25 07:20:27 51°13.691 2°55.756 2.6 22 15.2 101390 -999
2008-08-25 07:20:33 51°13.692 2°55.756 2.5 81 15.2 101390 -999
2008-08-25 07:20:38 51°13.694 2°55.757 2.1 26 15.2 101390 -999
2008-08-25 07:20:44 51°13.697 2°55.758 1.3 81 15.2 101390 -999
2008-08-25 07:20:49 51°13.701 2°55.758 1.9 27 15.2 101390 -999
2008-08-25 07:20:54 51°13.705 2°55.757 1.3 42 15.2 101390 -999
2008-08-25 07:20:59 51°13.71 2°55.755 1.2 24 15.2 101390 -999
2008-08-25 07:21:04 51°13.716 2°55.751 1 278 15.2 101390 -999
2008-08-25 07:21:08 51°13.721 2°55.748 0.9 262 15.2 101390 -999
2008-08-25 07:21:13 51°13.727 2°55.743 0.5 280 15.2 101390 -999
2008-08-25 07:21:18 51°13.734 2°55.737 1.8 22 15.3 101390 -999
2008-08-25 07:21:23 51°13.741 2°55.73 2.7 279 15.3 101390 -999
2008-08-25 07:21:28 51°13.748 2°55.722 4.8 25 15.3 101390 -999
2008-08-25 07:21:33 51°13.756 2°55.715 4.4 280 15.3 101390 -999
2008-08-25 07:21:37 51°13.762 2°55.708 5 25 15.3 101390 -999
2008-08-25 07:21:42 51°13.77 2°55.7 3.2 280 15.3 101390 -999
2008-08-25 07:21:47 51°13.779 2°55.692 4.5 19 15.3 101390 -999
2008-08-25 07:21:52 51°13.788 2°55.683 3.2 279 15.3 101390 -999
2008-08-25 07:21:57 51°13.797 2°55.675 1.8 260 15.4 101390 -999
2008-08-25 07:22:02 51°13.806 2°55.667 0.9 277 15.4 101390 -999
2008-08-25 07:22:06 51°13.813 2°55.66 0.7 22 15.4 101390 -999
2008-08-25 07:22:11 51°13.823 2°55.652 0.5 277 15.4 101390 -999
2008-08-25 07:22:16 51°13.832 2°55.644 1 352 15.4 101390 -999
2008-08-25 07:22:21 51°13.842 2°55.636 2.3 279 15.4 101390 -999
2008-08-25 07:22:26 51°13.852 2°55.628 2.8 334 15.4 101390 -999
2008-08-25 07:22:31 51°13.862 2°55.62 2.8 279 15.4 101390 -999
2008-08-25 07:22:36 51°13.872 2°55.612 2.4 27 15.4 101390 -999
2008-08-25 07:22:40 51°13.88 2°55.605 3.2 281 15.4 101390 -999
2008-08-25 07:22:45 51°13.891 2°55.597 4.8 24 15.4 101390 -999
2008-08-25 07:22:51 51°13.903 2°55.587 4.3 285 15.4 101390 -999
2008-08-25 07:22:56 51°13.914 2°55.579 2.6 316 15.4 101390 -999
2008-08-25 07:23:00 51°13.922 2°55.573 3.4 278 15.4 101390 -999
2008-08-25 07:23:05 51°13.932 2°55.564 3.4 20 15.4 101390 -999
2008-08-25 07:23:11 51°13.945 2°55.555 2.5 280 15.4 101390 -999
2008-08-25 07:23:16 51°13.956 2°55.546 2.6 28 15.4 101390 100
2008-08-25 07:23:20 51°13.964 2°55.54 2.3 279 15.4 101390 100
2008-08-25 07:23:26 51°13.977 2°55.53 3.1 28 15.4 101390 -999
2008-08-25 07:23:31 51°13.987 2°55.521 3.7 278 15.4 101390 -999
2008-08-25 07:23:36 51°13.998 2°55.513 4 25 15.5 101380 -999
2008-08-25 07:23:40 51°14.007 2°55.507 4.4 279 15.5 101380 -999
2008-08-25 07:23:45 51°14.017 2°55.499 4 22 15.5 101390 100
2008-08-25 07:23:51 51°14.03 2°55.489 3.7 284 15.5 101390 100
2008-08-25 07:23:56 51°14.04 2°55.481 4 27 15.5 101390 100
2008-08-25 07:24:00 51°14.049 2°55.474 3 282 15.5 101390 100
2008-08-25 07:24:05 51°14.06 2°55.466 4.2 21 15.5 101380 -999
2008-08-25 07:24:11 51°14.072 2°55.455 5.1 285 15.5 101380 -999
2008-08-25 07:24:16 51°14.083 2°55.447 3 29 15.5 101390 -999
2008-08-25 07:24:20 51°14.091 2°55.44 4.4 279 15.5 101390 -999
2008-08-25 07:24:25 51°14.102 2°55.431 3.7 319 15.5 101390 -999
2008-08-25 07:24:31 51°14.115 2°55.421 3.9 278 15.5 101390 -999
2008-08-25 07:24:36 51°14.125 2°55.412 3.4 28 15.5 101380 100
2008-08-25 07:24:40 51°14.133 2°55.405 3.5 283 15.5 101380 100
2008-08-25 07:24:45 51°14.144 2°55.396 5 23 15.5 101380 -999
2008-08-25 07:24:50 51°14.154 2°55.387 4.2 284 15.5 101380 -999
2008-08-25 07:24:56 51°14.166 2°55.375 4.3 20 15.5 101390 100
2008-08-25 07:25:01 51°14.176 2°55.365 3.1 284 15.5 101390 100
2008-08-25 07:25:05 51°14.184 2°55.356 4.4 320 15.5 101390 100
2008-08-25 07:25:11 51°14.195 2°55.343 4.1 277 15.5 101390 100
2008-08-25 07:25:15 51°14.203 2°55.334 5.8 321 15.5 101390 99
2008-08-25 07:25:20 51°14.213 2°55.322 5.4 280 15.5 101390 99
2008-08-25 07:25:25 51°14.222 2°55.31 6.3 22 15.6 101390 99
2008-08-25 07:25:31 51°14.234 2°55.294 7.1 286 15.6 101390 99
2008-08-25 07:25:36 51°14.243 2°55.281 6.1 27 15.6 101390 99
2008-08-25 07:25:40 51°14.25 2°55.27 6 284 15.6 101390 99
2008-08-25 07:25:45 51°14.259 2°55.256 6 26 15.6 101380 99
2008-08-25 07:25:51 51°14.27 2°55.239 5.6 280 15.6 101380 99
2008-08-25 07:25:56 51°14.279 2°55.224 6.3 23 15.6 101380 99
2008-08-25 07:26:00 51°14.286 2°55.211 7.7 279 15.6 101380 99
2008-08-25 07:26:05 51°14.295 2°55.196 8.3 22 15.5 101390 99
2008-08-25 07:26:11 51°14.306 2°55.176 6.6 285 15.5 101390 99
2008-08-25 07:26:16 51°14.315 2°55.16 8.6 25 15.6 101380 98
2008-08-25 07:26:20 51°14.323 2°55.147 8.3 284 15.6 101380 98
2008-08-25 07:26:25 51°14.332 2°55.13 5.7 26 15.6 101380 98
2008-08-25 07:26:31 51°14.343 2°55.109 7.2 280 15.6 101380 98
2008-08-25 07:26:36 51°14.352 2°55.091 6.6 24 15.6 101380 98
2008-08-25 07:26:40 51°14.36 2°55.077 7.9 285 15.6 101380 98
2008-08-25 07:26:45 51°14.37 2°55.059 8.2 20 15.6 101380 98
2008-08-25 07:26:50 51°14.38 2°55.042 9.7 283 15.6 101380 98
2008-08-25 07:26:56 51°14.392 2°55.021 8.7 24 15.6 101370 98
2008-08-25 07:27:00 51°14.401 2°55.008 7 283 15.6 101370 98
2008-08-25 07:27:05 51°14.413 2°54.991 6.5 25 15.6 101380 98
2008-08-25 07:27:11 51°14.428 2°54.972 8.3 284 15.6 101380 98
2008-08-25 07:27:15 51°14.438 2°54.959 8.6 25 15.6 101380 98
2008-08-25 07:27:20 51°14.45 2°54.942 7.3 284 15.6 101380 98
2008-08-25 07:27:25 51°14.462 2°54.925 8.4 25 15.6 101370 98
2008-08-25 07:27:31 51°14.476 2°54.903 7.3 285 15.6 101370 98
2008-08-25 07:27:36 51°14.486 2°54.884 7.8 27 15.6 101380 98
2008-08-25 07:27:40 51°14.494 2°54.867 9.2 280 15.6 101380 98
2008-08-25 07:27:45 51°14.504 2°54.847 9.7 22 15.7 101380 98
2008-08-25 07:27:51 51°14.515 2°54.822 9.2 281 15.7 101380 98
2008-08-25 07:27:56 51°14.525 2°54.802 9.1 27 15.7 101380 98
2008-08-25 07:28:00 51°14.533 2°54.786 9.1 285 15.7 101380 98
2008-08-25 07:28:06 51°14.545 2°54.761 8.5 21 15.7 101370 98
2008-08-25 07:28:11 51°14.554 2°54.741 8.4 284 15.7 101370 98
2008-08-25 07:28:16 51°14.564 2°54.721 10.9 22 15.7 101370 98
2008-08-25 07:28:20 51°14.571 2°54.705 8.6 279 15.7 101370 98
2008-08-25 07:28:25 51°14.579 2°54.684 10.6 22 15.7 101370 98
2008-08-25 07:28:31 51°14.588 2°54.66 9.4 284 15.7 101370 98
2008-08-25 07:28:36 51°14.596 2°54.639 11.7 23 15.7 101370 98
2008-08-25 07:28:40 51°14.603 2°54.624 9.5 281 15.7 101370 98
2008-08-25 07:28:45 51°14.611 2°54.605 11.4 27 15.7 101360 98
2008-08-25 07:28:50 51°14.62 2°54.585 9.8 280 15.7 101360 98
2008-08-25 07:28:56 51°14.629 2°54.562 10.5 25 15.7 101360 98
2008-08-25 07:29:00 51°14.636 2°54.546 10.6 284 15.7 101360 98
2008-08-25 07:29:05 51°14.643 2°54.527 11.5 28 15.7 101360 98
2008-08-25 07:29:11 51°14.652 2°54.503 10.6 283 15.7 101360 98
2008-08-25 07:29:15 51°14.657 2°54.487 8.2 26 15.7 101360 98
2008-08-25 07:29:20 51°14.664 2°54.467 8.6 286 15.7 101360 98
2008-08-25 07:29:25 51°14.67 2°54.447 8.8 21 15.7 101370 98
2008-08-25 07:29:30 51°14.676 2°54.427 10.3 285 15.7 101370 98
2008-08-25 07:29:36 51°14.683 2°54.403 10.2 20 15.7 101360 98
2008-08-25 07:29:40 51°14.688 2°54.386 9 281 15.7 101360 98
2008-08-25 07:29:45 51°14.693 2°54.366 10.3 28 15.7 101360 98
2008-08-25 07:29:51 51°14.7 2°54.341 8.5 279 15.7 101360 98
2008-08-25 07:29:56 51°14.706 2°54.321 8.2 25 15.7 101360 98
2008-08-25 07:30:00 51°14.71 2°54.304 7.6 283 15.7 101360 98
2008-08-25 07:30:05 51°14.716 2°54.284 9.5 23 15.8 101360 98
2008-08-25 07:30:11 51°14.724 2°54.26 8.2 281 15.8 101360 98
2008-08-25 07:30:16 51°14.729 2°54.239 8.7 26 15.8 101370 98
2008-08-25 07:30:20 51°14.734 2°54.223 10.5 283 15.8 101370 98
2008-08-25 07:30:25 51°14.739 2°54.202 11 26 15.8 101370 98
2008-08-25 07:30:31 51°14.746 2°54.177 10.8 284 15.8 101370 98
2008-08-25 07:30:36 51°14.751 2°54.157 10.9 22 15.8 101370 98
2008-08-25 07:30:40 51°14.755 2°54.14 9 281 15.8 101370 98
2008-08-25 07:30:45 51°14.761 2°54.12 9 22 15.8 101370 98
2008-08-25 07:30:51 51°14.767 2°54.095 8.6 280 15.8 101370 98
2008-08-25 07:30:56 51°14.773 2°54.075 8.6 28 15.8 101370 98
2008-08-25 07:31:00 51°14.776 2°54.059 10.5 280 15.8 101370 98
2008-08-25 07:31:05 51°14.78 2°54.038 10.8 26 15.8 101360 97
2008-08-25 07:31:10 51°14.784 2°54.016 9.5 281 15.8 101360 97
2008-08-25 07:31:16 51°14.788 2°53.991 9.5 26 15.8 101360 97
2008-08-25 07:31:20 51°14.79 2°53.974 11.3 280 15.8 101360 97
2008-08-25 07:31:25 51°14.793 2°53.952 9.1 21 15.8 101360 97
2008-08-25 07:31:31 51°14.796 2°53.926 9.3 286 15.8 101360 97
2008-08-25 07:31:35 51°14.797 2°53.909 8.7 28 15.8 101360 97
2008-08-25 07:31:40 51°14.8 2°53.887 10.5 281 15.8 101360 97
2008-08-25 07:31:45 51°14.802 2°53.865 9.3 25 15.8 101360 97
2008-08-25 07:31:50 51°14.803 2°53.844 9.5 283 15.8 101360 97
2008-08-25 07:31:56 51°14.806 2°53.817 11.3 27 15.8 101360 97
2008-08-25 07:32:00 51°14.807 2°53.8 9.1 284 15.8 101360 97
2008-08-25 07:32:05 51°14.809 2°53.778 9.2 28 15.8 101370 97
2008-08-25 07:32:11 51°14.811 2°53.752 8.8 283 15.8 101370 97
2008-08-25 07:32:16 51°14.812 2°53.73 10.7 23 15.8 101360 97
2008-08-25 07:32:20 51°14.813 2°53.712 10.6 282 15.8 101360 97
2008-08-25 07:32:25 51°14.815 2°53.69 9.5 27 15.8 101360 97
2008-08-25 07:32:31 51°14.817 2°53.664 10.7 286 15.8 101360 97
2008-08-25 07:32:36 51°14.818 2°53.641 9.5 25 15.8 101370 97
2008-08-25 07:32:40 51°14.819 2°53.624 10.9 284 15.8 101370 97
2008-08-25 07:32:45 51°14.821 2°53.602 9 27 15.8 101370 97
2008-08-25 07:32:51 51°14.823 2°53.575 11.4 285 15.8 101370 97
2008-08-25 07:32:56 51°14.824 2°53.553 11.9 25 15.8 101360 97
2008-08-25 07:33:00 51°14.825 2°53.536 11.4 282 15.8 101360 97
2008-08-25 07:33:05 51°14.827 2°53.514 11.2 27 15.8 101360 97
2008-08-25 07:33:11 51°14.829 2°53.487 10 277 15.8 101360 97
2008-08-25 07:33:16 51°14.831 2°53.465 11.7 23 15.9 101370 97
2008-08-25 07:33:20 51°14.833 2°53.448 11.3 280 15.9 101370 97
2008-08-25 07:33:25 51°14.835 2°53.426 10 28 15.9 101360 97
2008-08-25 07:33:30 51°14.837 2°53.404 12 280 15.9 101360 97
2008-08-25 07:33:36 51°14.84 2°53.378 11.9 21 15.8 101370 97
2008-08-25 07:33:40 51°14.842 2°53.36 9.6 279 15.8 101370 97
2008-08-25 07:33:45 51°14.844 2°53.338 9.4 24 15.9 101360 97
2008-08-25 07:33:51 51°14.847 2°53.312 9.3 280 15.9 101360 97
2008-08-25 07:33:56 51°14.849 2°53.29 10.1 27 15.8 101360 97
2008-08-25 07:34:00 51°14.851 2°53.273 9.5 284 15.8 101360 97
2008-08-25 07:34:05 51°14.854 2°53.251 10.5 315 15.8 101360 97
2008-08-25 07:34:11 51°14.856 2°53.224 10.4 283 15.8 101360 97
2008-08-25 07:34:16 51°14.859 2°53.202 12.3 25 15.8 101360 97
2008-08-25 07:34:20 51°14.861 2°53.185 12.1 278 15.8 101360 97
2008-08-25 07:34:25 51°14.863 2°53.163 12.1 30 15.8 101360 97
2008-08-25 07:34:31 51°14.866 2°53.137 10.3 277 15.8 101360 97
2008-08-25 07:34:36 51°14.868 2°53.115 10.6 316 15.8 101360 97
2008-08-25 07:34:40 51°14.87 2°53.097 11.1 280 15.8 101360 97
2008-08-25 07:34:45 51°14.872 2°53.075 13.7 22 15.8 101360 97
2008-08-25 07:34:51 51°14.875 2°53.049 13.6 281 15.8 101360 97
2008-08-25 07:34:56 51°14.877 2°53.027 13.1 25 15.9 101360 97
2008-08-25 07:35:00 51°14.879 2°53.009 13 283 15.9 101360 97
2008-08-25 07:35:05 51°14.881 2°52.987 12.3 316 15.8 101370 97
2008-08-25 07:35:11 51°14.884 2°52.961 12.7 278 15.8 101370 97
2008-08-25 07:35:16 51°14.886 2°52.939 11.2 24 15.8 101360 97
2008-08-25 07:35:20 51°14.888 2°52.921 10.8 283 15.8 101360 97
2008-08-25 07:35:25 51°14.89 2°52.899 12.3 20 15.8 101350 97
2008-08-25 07:35:31 51°14.893 2°52.873 10.5 276 15.8 101350 97
2008-08-25 07:35:36 51°14.895 2°52.851 12.4 22 15.9 101360 97
2008-08-25 07:35:40 51°14.897 2°52.834 10.2 277 15.9 101360 97
2008-08-25 07:35:45 51°14.899 2°52.812 12.9 25 15.8 101350 97
2008-08-25 07:35:51 51°14.901 2°52.786 14 284 15.8 101350 97
2008-08-25 07:35:56 51°14.904 2°52.764 13.1 26 15.9 101360 96
2008-08-25 07:36:00 51°14.906 2°52.747 10 280 15.9 101360 96
2008-08-25 07:36:05 51°14.908 2°52.725 11.8 23 15.9 101360 96
2008-08-25 07:36:10 51°14.91 2°52.703 10.4 280 15.9 101360 96
2008-08-25 07:36:16 51°14.913 2°52.677 10 27 15.9 101350 96
2008-08-25 07:36:20 51°14.915 2°52.659 11.8 280 15.9 101350 96
2008-08-25 07:36:25 51°14.917 2°52.638 10.5 26 15.9 101360 96
2008-08-25 07:36:31 51°14.92 2°52.612 10.4 281 15.9 101360 96
2008-08-25 07:36:36 51°14.922 2°52.59 13.8 25 15.9 101360 97
2008-08-25 07:36:40 51°14.924 2°52.572 10 276 15.9 101360 97
2008-08-25 07:36:45 51°14.926 2°52.55 13.7 315 15.9 101360 96
2008-08-25 07:36:51 51°14.928 2°52.524 13.3 285 15.9 101360 96
2008-08-25 07:36:56 51°14.93 2°52.502 10.3 25 15.9 101360 96
2008-08-25 07:37:00 51°14.932 2°52.485 12.1 282 15.9 101360 96
2008-08-25 07:37:05 51°14.934 2°52.463 12.8 26 15.9 101350 96
2008-08-25 07:37:11 51°14.936 2°52.437 10.4 280 15.9 101350 96
2008-08-25 07:37:16 51°14.937 2°52.415 12.4 21 15.9 101360 96
2008-08-25 07:37:20 51°14.939 2°52.397 12.7 285 15.9 101360 96
2008-08-25 07:37:25 51°14.941 2°52.374 12.8 23 15.9 101360 96
2008-08-25 07:37:31 51°14.944 2°52.347 13 279 15.9 101360 96
2008-08-25 07:37:36 51°14.946 2°52.324 9.6 28 15.9 101360 96
2008-08-25 07:37:40 51°14.948 2°52.305 12.5 281 15.9 101360 96
2008-08-25 07:37:45 51°14.951 2°52.282 12.5 21 15.9 101360 96
2008-08-25 07:37:51 51°14.954 2°52.253 12.9 280 15.9 101360 96
2008-08-25 07:37:56 51°14.956 2°52.229 11 27 15.9 101360 96
2008-08-25 07:38:00 51°14.958 2°52.21 11.3 277 15.9 101360 96
2008-08-25 07:38:05 51°14.961 2°52.186 10.9 22 15.9 101360 96
2008-08-25 07:38:11 51°14.964 2°52.156 10.6 280 15.9 101360 96
2008-08-25 07:38:15 51°14.966 2°52.137 10.7 25 15.9 101360 96
2008-08-25 07:38:20 51°14.969 2°52.112 11.3 278 15.9 101360 96
2008-08-25 07:38:25 51°14.972 2°52.088 10.5 28 15.9 101360 96
2008-08-25 07:38:30 51°14.974 2°52.063 13.4 277 15.9 101360 96
2008-08-25 07:38:36 51°14.978 2°52.033 11.2 27 15.9 101360 96
2008-08-25 07:38:40 51°14.979 2°52.013 11 280 15.9 101360 96
2008-08-25 07:38:45 51°14.982 2°51.988 13.6 27 15.9 101360 96
2008-08-25 07:38:51 51°14.984 2°51.957 13.2 280 15.9 101360 96
2008-08-25 07:38:56 51°14.986 2°51.932 10.4 26 15.9 101360 96
2008-08-25 07:39:00 51°14.988 2°51.912 12.9 284 15.9 101360 96
2008-08-25 07:39:05 51°14.991 2°51.887 11.7 25 15.9 101360 96
2008-08-25 07:39:11 51°14.993 2°51.857 13.3 283 15.9 101360 96
2008-08-25 07:39:16 51°14.995 2°51.831 12 316 15.9 101360 96
2008-08-25 07:39:20 51°14.997 2°51.811 13.7 281 15.9 101360 96
2008-08-25 07:39:25 51°14.999 2°51.786 11.4 28 15.9 101360 96
2008-08-25 07:39:31 51°15.001 2°51.755 11 280 15.9 101360 96
2008-08-25 07:39:36 51°15.002 2°51.73 10.7 28 15.9 101360 96
2008-08-25 07:39:40 51°15.004 2°51.71 12.7 281 15.9 101360 96
2008-08-25 07:39:45 51°15.006 2°51.684 10.6 23 15.9 101360 96
2008-08-25 07:39:51 51°15.009 2°51.654 11 285 15.9 101360 96
2008-08-25 07:39:56 51°15.012 2°51.629 11.6 24 15.9 101360 96
2008-08-25 07:40:00 51°15.014 2°51.609 11 279 15.9 101360 96
2008-08-25 07:40:05 51°15.017 2°51.583 11.2 26 15.9 101360 96
2008-08-25 07:40:11 51°15.02 2°51.553 11.6 283 15.9 101360 96
2008-08-25 07:40:16 51°15.023 2°51.527 14.1 25 15.9 101360 96
2008-08-25 07:40:20 51°15.025 2°51.507 12 282 15.9 101360 96
2008-08-25 07:40:25 51°15.028 2°51.482 11.6 26 15.9 101360 96
2008-08-25 07:40:31 51°15.032 2°51.452 12.2 277 15.9 101360 96
2008-08-25 07:40:36 51°15.035 2°51.426 13.1 316 15.9 101360 96
2008-08-25 07:40:40 51°15.037 2°51.406 11.8 282 15.9 101360 96
2008-08-25 07:40:45 51°15.04 2°51.381 13.4 25 15.9 101350 96
2008-08-25 07:40:51 51°15.043 2°51.351 13.9 282 15.9 101350 96
2008-08-25 07:40:55 51°15.045 2°51.33 11.3 316 15.9 101350 96
2008-08-25 07:41:00 51°15.047 2°51.305 10.7 278 15.9 101350 96
2008-08-25 07:41:05 51°15.049 2°51.28 14.1 315 15.9 101350 96
2008-08-25 07:41:11 51°15.051 2°51.249 14.4 280 15.9 101350 96
2008-08-25 07:41:16 51°15.053 2°51.224 13.2 24 15.9 101350 96
2008-08-25 07:41:20 51°15.055 2°51.204 12.1 286 15.9 101350 96
2008-08-25 07:41:25 51°15.057 2°51.179 11.8 315 16 101360 96
2008-08-25 07:41:31 51°15.06 2°51.149 11 278 16 101360 96
2008-08-25 07:41:36 51°15.061 2°51.124 14.2 28 16 101350 96
2008-08-25 07:41:40 51°15.063 2°51.104 11.3 276 16 101350 96
2008-08-25 07:41:46 51°15.065 2°51.073 13.7 27 16 101350 96
2008-08-25 07:41:51 51°15.067 2°51.048 13.7 284 16 101350 96
2008-08-25 07:41:56 51°15.069 2°51.023 11.9 24 16 101360 96
2008-08-25 07:42:00 51°15.071 2°51.003 13.6 280 16 101360 96
2008-08-25 07:42:05 51°15.073 2°50.978 13.4 23 16 101350 96
2008-08-25 07:42:11 51°15.076 2°50.948 13.3 281 16 101350 96
2008-08-25 07:42:16 51°15.079 2°50.923 12.1 25 16 101350 96
2008-08-25 07:42:20 51°15.082 2°50.903 11.6 283 16 101350 96
2008-08-25 07:42:25 51°15.085 2°50.878 11.9 27 16 101350 96
2008-08-25 07:42:31 51°15.09 2°50.848 12 282 16 101350 96
2008-08-25 07:42:36 51°15.094 2°50.823 11.1 24 16 101360 96
2008-08-25 07:42:40 51°15.097 2°50.804 10.1 278 16 101360 96
2008-08-25 07:42:45 51°15.101 2°50.779 13 29 16 101350 96
2008-08-25 07:42:51 51°15.106 2°50.749 11.5 280 16 101350 96
2008-08-25 07:42:56 51°15.111 2°50.724 11.9 25 16 101350 96
2008-08-25 07:43:00 51°15.115 2°50.704 12.7 282 16 101350 96
2008-08-25 07:43:05 51°15.12 2°50.68 11.4 24 16 101350 96
2008-08-25 07:43:11 51°15.126 2°50.65 12.4 284 16 101350 96
2008-08-25 07:43:16 51°15.131 2°50.626 13.9 24 16 101350 96
2008-08-25 07:43:20 51°15.135 2°50.606 15 281 16 101350 96
2008-08-25 07:43:25 51°15.14 2°50.582 11.8 23 16 101350 96
2008-08-25 07:43:31 51°15.146 2°50.552 12.6 285 16 101350 96
2008-08-25 07:43:36 51°15.151 2°50.528 15 25 16.1 101350 96
2008-08-25 07:43:40 51°15.155 2°50.508 12.4 282 16.1 101350 96
2008-08-25 07:43:45 51°15.159 2°50.484 14.6 22 16 101350 96
2008-08-25 07:43:51 51°15.165 2°50.454 11.5 278 16 101350 96
2008-08-25 07:43:56 51°15.17 2°50.429 14.1 23 16 101350 95
2008-08-25 07:44:00 51°15.174 2°50.409 11.4 283 16 101350 95
2008-08-25 07:44:05 51°15.179 2°50.385 13.4 23 16 101340 95
2008-08-25 07:44:11 51°15.185 2°50.355 15.1 285 16 101340 95
2008-08-25 07:44:16 51°15.189 2°50.331 12.1 22 16 101350 95
2008-08-25 07:44:20 51°15.192 2°50.311 12.1 282 16 101350 95
2008-08-25 07:44:25 51°15.198 2°50.286 14.2 22 16.1 101350 96
2008-08-25 07:44:31 51°15.203 2°50.256 13.1 278 16.1 101350 96
2008-08-25 07:44:36 51°15.208 2°50.231 13.8 24 16.1 101350 95
2008-08-25 07:44:40 51°15.212 2°50.212 13.6 281 16.1 101350 95
2008-08-25 07:44:45 51°15.216 2°50.187 14 22 16.1 101350 95
2008-08-25 07:44:51 51°15.222 2°50.157 13.9 281 16.1 101350 95
2008-08-25 07:44:56 51°15.227 2°50.132 14.2 23 16.1 101350 95
2008-08-25 07:45:00 51°15.231 2°50.112 11.9 283 16.1 101350 95
2008-08-25 07:45:05 51°15.235 2°50.088 11.6 28 16.1 101350 95
2008-08-25 07:45:10 51°15.24 2°50.063 14.1 284 16.1 101350 95
2008-08-25 07:45:16 51°15.245 2°50.033 12.2 28 16.1 101350 95
2008-08-25 07:45:20 51°15.249 2°50.014 12.8 281 16.1 101350 95
2008-08-25 07:45:25 51°15.253 2°49.989 11.4 24 16.1 101350 95
2008-08-25 07:45:31 51°15.259 2°49.959 11.8 282 16.1 101350 95
2008-08-25 07:45:36 51°15.263 2°49.935 11.6 26 16.1 101350 95
2008-08-25 07:45:41 51°15.267 2°49.911 12.2 281 16.1 101350 95
2008-08-25 07:45:45 51°15.271 2°49.891 12.1 26 16.1 101350 95
2008-08-25 07:45:51 51°15.276 2°49.861 11.5 285 16.1 101350 95
2008-08-25 07:45:56 51°15.281 2°49.836 12.7 26 16.1 101340 95
2008-08-25 07:46:00 51°15.284 2°49.817 15.2 285 16.1 101340 95
2008-08-25 07:46:05 51°15.288 2°49.792 13 22 16.1 101340 95
2008-08-25 07:46:11 51°15.292 2°49.762 12.4 282 16.1 101340 95
2008-08-25 07:46:16 51°15.296 2°49.737 14.7 22 16.1 101350 95
2008-08-25 07:46:20 51°15.299 2°49.717 14.6 280 16.1 101350 95
2008-08-25 07:46:25 51°15.303 2°49.692 12.8 27 16.1 101350 95
2008-08-25 07:46:31 51°15.307 2°49.662 12 284 16.1 101350 95
2008-08-25 07:46:36 51°15.311 2°49.637 10.9 27 16.1 101350 95
2008-08-25 07:46:40 51°15.315 2°49.617 11.9 277 16.1 101350 95
2008-08-25 07:46:45 51°15.319 2°49.592 13.9 24 16.1 101340 95
2008-08-25 07:46:51 51°15.326 2°49.563 14.5 277 16.1 101340 95
2008-08-25 07:46:56 51°15.332 2°49.539 11.3 27 16.1 101350 95
2008-08-25 07:47:00 51°15.337 2°49.52 14.1 280 16.1 101350 95
2008-08-25 07:47:05 51°15.343 2°49.496 11.8 25 16.1 101350 95
2008-08-25 07:47:10 51°15.349 2°49.472 13.7 281 16.1 101350 95
2008-08-25 07:47:16 51°15.357 2°49.443 14.2 29 16.2 101350 95
2008-08-25 07:47:20 51°15.362 2°49.424 10.7 281 16.2 101350 95
2008-08-25 07:47:25 51°15.368 2°49.4 14.2 25 16.2 101350 95
2008-08-25 07:47:31 51°15.374 2°49.37 11.4 277 16.2 101350 95
2008-08-25 07:47:35 51°15.379 2°49.351 10.5 28 16.2 101350 95
2008-08-25 07:47:40 51°15.384 2°49.326 12.9 280 16.2 101350 95
2008-08-25 07:47:45 51°15.39 2°49.302 13.8 21 16.2 101350 95
2008-08-25 07:47:50 51°15.395 2°49.277 12.2 280 16.2 101350 95
2008-08-25 07:47:56 51°15.401 2°49.248 11.9 23 16.2 101340 95
2008-08-25 07:48:00 51°15.406 2°49.229 13.6 277 16.2 101340 95
2008-08-25 07:48:06 51°15.412 2°49.199 13.7 23 16.2 101350 95
2008-08-25 07:48:11 51°15.418 2°49.175 14.2 281 16.2 101350 95
2008-08-25 07:48:15 51°15.422 2°49.155 10.8 26 16.2 101340 95
2008-08-25 07:48:20 51°15.428 2°49.131 13.6 282 16.2 101340 95
2008-08-25 07:48:25 51°15.433 2°49.106 14 21 16.2 101340 95
2008-08-25 07:48:31 51°15.439 2°49.077 12.7 281 16.2 101340 95
2008-08-25 07:48:36 51°15.445 2°49.053 14.4 23 16.2 101340 95
2008-08-25 07:48:40 51°15.449 2°49.033 12.1 283 16.2 101340 95
2008-08-25 07:48:45 51°15.455 2°49.009 12.6 25 16.2 101350 95
2008-08-25 07:48:51 51°15.461 2°48.98 11.2 278 16.2 101350 95
2008-08-25 07:48:56 51°15.466 2°48.956 14 28 16.2 101350 95
2008-08-25 07:49:00 51°15.471 2°48.937 13.8 283 16.2 101350 95
2008-08-25 07:49:05 51°15.476 2°48.912 11.5 23 16.2 101350 95
2008-08-25 07:49:11 51°15.482 2°48.883 14.9 281 16.2 101350 95
2008-08-25 07:49:16 51°15.488 2°48.859 14.4 24 16.2 101350 95
2008-08-25 07:49:20 51°15.492 2°48.839 15.2 280 16.2 101350 95
2008-08-25 07:49:25 51°15.497 2°48.815 14.2 26 16.2 101350 95
2008-08-25 07:49:31 51°15.504 2°48.786 14.6 278 16.2 101350 95
2008-08-25 07:49:36 51°15.509 2°48.762 12.3 29 16.2 101340 95
2008-08-25 07:49:40 51°15.513 2°48.742 14.5 282 16.2 101340 95
2008-08-25 07:49:45 51°15.518 2°48.718 11.3 27 16.2 101340 95
2008-08-25 07:49:51 51°15.524 2°48.689 11.9 278 16.2 101340 95
2008-08-25 07:49:55 51°15.529 2°48.669 13.3 27 16.2 101340 95
2008-08-25 07:50:00 51°15.534 2°48.645 14.3 284 16.2 101340 95
2008-08-25 07:50:05 51°15.539 2°48.62 11.7 27 16.2 101340 95
2008-08-25 07:50:11 51°15.545 2°48.591 14 280 16.2 101340 95
2008-08-25 07:50:16 51°15.55 2°48.566 13.5 27 16.2 101350 95
2008-08-25 07:50:20 51°15.555 2°48.547 13.4 282 16.2 101350 95
2008-08-25 07:50:25 51°15.559 2°48.522 13.6 23 16.2 101340 95
2008-08-25 07:50:31 51°15.566 2°48.492 14.2 283 16.2 101340 95
2008-08-25 07:50:35 51°15.57 2°48.473 13.6 25 16.2 101340 95
2008-08-25 07:50:40 51°15.574 2°48.448 14.3 285 16.2 101340 95
2008-08-25 07:50:45 51°15.58 2°48.424 13.4 23 16.3 101340 95
2008-08-25 07:50:51 51°15.586 2°48.394 11.4 285 16.3 101340 95
2008-08-25 07:50:56 51°15.591 2°48.369 13.3 23 16.2 101350 95
2008-08-25 07:51:00 51°15.594 2°48.349 11.8 278 16.2 101350 95
2008-08-25 07:51:06 51°15.6 2°48.32 13.1 29 16.3 101350 95
2008-08-25 07:51:11 51°15.605 2°48.295 15.1 282 16.3 101350 95
2008-08-25 07:51:16 51°15.61 2°48.27 14.1 27 16.3 101340 95
2008-08-25 07:51:20 51°15.614 2°48.25 12.1 281 16.3 101340 95
2008-08-25 07:51:25 51°15.619 2°48.225 12.5 23 16.3 101340 95
2008-08-25 07:51:31 51°15.625 2°48.195 13 281 16.3 101340 95
2008-08-25 07:51:36 51°15.63 2°48.171 15.2 22 16.2 101340 95
2008-08-25 07:51:40 51°15.635 2°48.151 14.5 280 16.2 101340 95
2008-08-25 07:51:45 51°15.64 2°48.126 12.6 26 16.2 101340 94
2008-08-25 07:51:51 51°15.646 2°48.096 13.1 280 16.2 101340 94
2008-08-25 07:51:56 51°15.651 2°48.072 15 26 16.2 101340 94
2008-08-25 07:52:00 51°15.656 2°48.052 15 279 16.2 101340 94
2008-08-25 07:52:05 51°15.661 2°48.027 12.6 23 16.2 101340 94
2008-08-25 07:52:11 51°15.667 2°47.997 14.3 279 16.2 101340 94
2008-08-25 07:52:15 51°15.672 2°47.977 12.5 28 16.2 101340 94
2008-08-25 07:52:20 51°15.677 2°47.953 14.2 279 16.2 101340 94
2008-08-25 07:52:25 51°15.682 2°47.928 12.4 23 16.3 101340 94
2008-08-25 07:52:31 51°15.688 2°47.898 12.8 277 16.3 101340 94
2008-08-25 07:52:36 51°15.694 2°47.874 12.5 37 16.2 101340 94
2008-08-25 07:52:40 51°15.698 2°47.854 11.9 276 16.2 101340 94
2008-08-25 07:52:46 51°15.704 2°47.824 13.8 22 16.3 101340 94
2008-08-25 07:52:51 51°15.71 2°47.8 13.3 284 16.3 101340 94
2008-08-25 07:52:55 51°15.714 2°47.78 14.2 23 16.2 101340 94
2008-08-25 07:53:00 51°15.719 2°47.756 14 285 16.2 101340 94
2008-08-25 07:53:05 51°15.724 2°47.731 13 22 16.2 101340 94
2008-08-25 07:53:11 51°15.731 2°47.701 11.8 277 16.2 101340 94
2008-08-25 07:53:16 51°15.736 2°47.677 11.8 29 16.2 101340 94
2008-08-25 07:53:20 51°15.74 2°47.657 13.4 281 16.2 101340 94
2008-08-25 07:53:25 51°15.744 2°47.633 13.1 35 16.2 101340 94
2008-08-25 07:53:31 51°15.75 2°47.603 12 285 16.2 101340 94
2008-08-25 07:53:36 51°15.754 2°47.578 12 27 16.2 101340 94
2008-08-25 07:53:40 51°15.758 2°47.558 14 281 16.2 101340 94
2008-08-25 07:53:45 51°15.762 2°47.534 12.2 26 16.3 101340 94
2008-08-25 07:53:50 51°15.767 2°47.509 14.8 282 16.3 101340 94
2008-08-25 07:53:56 51°15.772 2°47.48 12.4 25 16.3 101350 95
2008-08-25 07:54:00 51°15.775 2°47.46 14 282 16.3 101350 95
2008-08-25 07:54:05 51°15.78 2°47.435 12.1 26 16.3 101340 94
2008-08-25 07:54:10 51°15.784 2°47.411 14.8 280 16.3 101340 94
2008-08-25 07:54:16 51°15.79 2°47.381 14.3 30 16.3 101340 94
2008-08-25 07:54:20 51°15.793 2°47.362 13.7 282 16.3 101340 94
2008-08-25 07:54:25 51°15.798 2°47.337 10.9 29 16.3 101340 94
2008-08-25 07:54:31 51°15.803 2°47.307 12.6 281 16.3 101340 94
2008-08-25 07:54:35 51°15.807 2°47.288 11.1 28 16.2 101340 94
2008-08-25 07:54:41 51°15.813 2°47.258 13.8 281 16.2 101340 94
2008-08-25 07:54:45 51°15.818 2°47.239 14.3 24 16.2 101340 94
2008-08-25 07:54:50 51°15.823 2°47.214 14.2 279 16.2 101340 94
2008-08-25 07:54:56 51°15.83 2°47.185 13.3 27 16.3 101350 94
2008-08-25 07:55:00 51°15.834 2°47.165 11.7 285 16.3 101350 94
2008-08-25 07:55:05 51°15.84 2°47.141 10.9 26 16.3 101340 94
2008-08-25 07:55:11 51°15.846 2°47.112 12.7 280 16.3 101340 94
2008-08-25 07:55:16 51°15.851 2°47.087 11.5 23 16.3 101340 94
2008-08-25 07:55:20 51°15.856 2°47.068 13.7 277 16.3 101340 94
2008-08-25 07:55:25 51°15.861 2°47.044 14.4 39 16.3 101340 94
2008-08-25 07:55:31 51°15.868 2°47.015 14 282 16.3 101340 94
2008-08-25 07:55:36 51°15.873 2°46.99 13.2 22 16.3 101340 94
2008-08-25 07:55:40 51°15.878 2°46.971 13.3 282 16.3 101340 94
2008-08-25 07:55:45 51°15.883 2°46.946 13.7 29 16.3 101350 94
2008-08-25 07:55:51 51°15.89 2°46.917 13.7 280 16.3 101350 94
2008-08-25 07:55:56 51°15.895 2°46.893 10.9 23 16.3 101340 94
2008-08-25 07:56:00 51°15.9 2°46.873 12.5 279 16.3 101340 94
2008-08-25 07:56:05 51°15.905 2°46.849 11.8 23 16.3 101350 94
2008-08-25 07:56:11 51°15.912 2°46.82 13.4 285 16.3 101350 94
2008-08-25 07:56:16 51°15.918 2°46.795 10.8 25 16.2 101340 94
2008-08-25 07:56:20 51°15.922 2°46.776 10.6 279 16.2 101340 94
2008-08-25 07:56:25 51°15.927 2°46.752 12.9 28 16.3 101340 94
2008-08-25 07:56:30 51°15.933 2°46.727 11.1 277 16.3 101340 94
2008-08-25 07:56:36 51°15.939 2°46.698 14.7 23 16.3 101340 94
2008-08-25 07:56:40 51°15.944 2°46.679 12.9 286 16.3 101340 94
2008-08-25 07:56:45 51°15.949 2°46.655 12 25 16.3 101350 95
2008-08-25 07:56:51 51°15.956 2°46.626 14.3 280 16.3 101350 95
2008-08-25 07:56:55 51°15.961 2°46.607 12.1 21 16.3 101350 95
2008-08-25 07:57:01 51°15.967 2°46.577 11.7 284 16.3 101350 95
2008-08-25 07:57:05 51°15.971 2°46.558 14.1 24 16.3 101350 94
2008-08-25 07:57:11 51°15.978 2°46.529 13.4 277 16.3 101350 94
2008-08-25 07:57:16 51°15.983 2°46.505 13.4 26 16.3 101340 94
2008-08-25 07:57:20 51°15.988 2°46.485 13.6 283 16.3 101340 94
2008-08-25 07:57:25 51°15.993 2°46.461 10.3 26 16.3 101340 94
2008-08-25 07:57:31 51°16.001 2°46.433 13.6 284 16.3 101340 94
2008-08-25 07:57:36 51°16.008 2°46.409 13.3 28 16.3 101350 95
2008-08-25 07:57:40 51°16.013 2°46.391 12.8 281 16.3 101350 95
2008-08-25 07:57:46 51°16.022 2°46.363 11.3 28 16.3 101340 95
2008-08-25 07:57:51 51°16.029 2°46.34 13.2 284 16.3 101340 95
2008-08-25 07:57:56 51°16.037 2°46.317 11.7 27 16.3 101350 95
2008-08-25 07:58:00 51°16.043 2°46.298 10.9 277 16.3 101350 95
2008-08-25 07:58:05 51°16.052 2°46.276 13 24 16.3 101350 95
2008-08-25 07:58:10 51°16.06 2°46.254 11.5 281 16.3 101350 95
2008-08-25 07:58:16 51°16.071 2°46.226 11.3 25 16.3 101350 95
2008-08-25 07:58:20 51°16.077 2°46.208 14.2 283 16.3 101350 95
2008-08-25 07:58:25 51°16.086 2°46.186 10.4 26 16.3 101350 95
2008-08-25 07:58:31 51°16.096 2°46.158 10.7 281 16.3 101350 95
2008-08-25 07:58:36 51°16.105 2°46.136 11.1 24 16.3 101350 95
2008-08-25 07:58:40 51°16.111 2°46.118 11.2 281 16.3 101350 95
2008-08-25 07:58:45 51°16.12 2°46.095 13.5 27 16.3 101350 95
2008-08-25 07:58:50 51°16.129 2°46.073 13 282 16.3 101350 95
2008-08-25 07:58:55 51°16.137 2°46.05 11.9 28 16.3 101350 95
2008-08-25 07:59:00 51°16.146 2°46.027 10.4 283 16.3 101350 95
2008-08-25 07:59:05 51°16.154 2°46.004 10.3 27 16.3 101350 95
2008-08-25 07:59:11 51°16.164 2°45.977 12.5 280 16.3 101350 95
2008-08-25 07:59:15 51°16.171 2°45.958 10.9 27 16.3 101340 95
2008-08-25 07:59:21 51°16.181 2°45.931 12.5 278 16.3 101340 95
2008-08-25 07:59:25 51°16.188 2°45.913 10.3 26 16.3 101350 95
2008-08-25 07:59:31 51°16.198 2°45.885 11.5 276 16.3 101350 95
2008-08-25 07:59:36 51°16.206 2°45.862 11.1 233 16.3 101350 95
2008-08-25 07:59:40 51°16.213 2°45.844 13.1 281 16.3 101350 95
2008-08-25 07:59:46 51°16.223 2°45.816 13.8 22 16.4 101350 95
2008-08-25 07:59:51 51°16.231 2°45.794 11.3 281 16.4 101350 95
2008-08-25 07:59:55 51°16.238 2°45.775 13 25 16.4 101350 95
2008-08-25 08:00:01 51°16.248 2°45.747 11.1 279 16.4 101350 95
2008-08-25 08:00:05 51°16.254 2°45.729 11.7 25 16.4 101350 95
2008-08-25 08:00:11 51°16.264 2°45.701 12.8 277 16.4 101350 95
2008-08-25 08:00:16 51°16.272 2°45.678 13.8 23 16.4 101350 95
2008-08-25 08:00:20 51°16.278 2°45.659 13.5 284 16.4 101350 95
2008-08-25 08:00:25 51°16.286 2°45.636 10.9 28 16.4 101350 95
2008-08-25 08:00:31 51°16.295 2°45.608 12.7 276 16.4 101350 95
2008-08-25 08:00:36 51°16.304 2°45.585 12.4 24 16.4 101340 95
2008-08-25 08:00:41 51°16.312 2°45.562 13.5 282 16.4 101340 95
2008-08-25 08:00:45 51°16.318 2°45.543 12.7 20 16.4 101350 95
2008-08-25 08:00:51 51°16.328 2°45.516 10.7 280 16.4 101350 95
2008-08-25 08:00:56 51°16.337 2°45.493 11 25 16.4 101350 95
2008-08-25 08:01:00 51°16.343 2°45.474 11.6 282 16.4 101350 95
2008-08-25 08:01:05 51°16.351 2°45.451 13.2 24 16.4 101350 95
2008-08-25 08:01:10 51°16.36 2°45.428 12.7 281 16.4 101350 95
2008-08-25 08:01:16 51°16.37 2°45.4 11.4 28 16.4 101350 95
2008-08-25 08:01:20 51°16.377 2°45.382 13.9 280 16.4 101350 95
2008-08-25 08:01:25 51°16.386 2°45.359 11.6 26 16.4 101350 95
2008-08-25 08:01:31 51°16.396 2°45.331 13.5 284 16.4 101350 95
2008-08-25 08:01:35 51°16.402 2°45.312 11.5 29 16.4 101350 95
2008-08-25 08:01:41 51°16.412 2°45.285 10.7 281 16.4 101350 95
2008-08-25 08:01:45 51°16.418 2°45.266 10.7 22 16.4 101340 95
2008-08-25 08:01:51 51°16.427 2°45.237 12.8 278 16.4 101340 95
2008-08-25 08:01:56 51°16.434 2°45.214 11 27 16.4 101350 94
2008-08-25 08:02:00 51°16.44 2°45.195 13.3 285 16.4 101350 94
2008-08-25 08:02:05 51°16.448 2°45.171 10 28 16.4 101350 94
2008-08-25 08:02:11 51°16.457 2°45.144 11.3 283 16.4 101350 94
2008-08-25 08:02:16 51°16.465 2°45.12 12.4 25 16.4 101350 95
2008-08-25 08:02:20 51°16.472 2°45.102 10.7 284 16.4 101350 95
2008-08-25 08:02:25 51°16.48 2°45.079 13.2 27 16.5 101350 95
2008-08-25 08:02:31 51°16.49 2°45.051 13.6 281 16.5 101350 95
2008-08-25 08:02:36 51°16.499 2°45.028 14.2 23 16.5 101360 95
2008-08-25 08:02:40 51°16.505 2°45.009 11 283 16.5 101360 95
2008-08-25 08:02:45 51°16.514 2°44.986 10.1 26 16.5 101350 95
2008-08-25 08:02:51 51°16.524 2°44.959 11 280 16.5 101350 95
2008-08-25 08:02:56 51°16.532 2°44.936 11.3 27 16.5 101350 95
2008-08-25 08:03:00 51°16.539 2°44.918 14.1 278 16.5 101350 95
2008-08-25 08:03:05 51°16.548 2°44.895 13 29 16.5 101350 95
2008-08-25 08:03:11 51°16.558 2°44.867 11.1 285 16.5 101350 95
2008-08-25 08:03:16 51°16.566 2°44.844 13.5 25 16.5 101350 95
2008-08-25 08:03:21 51°16.575 2°44.821 12.5 277 16.5 101350 95
2008-08-25 08:03:25 51°16.581 2°44.802 10.7 27 16.4 101350 95
2008-08-25 08:03:30 51°16.59 2°44.779 11 281 16.4 101350 95
2008-08-25 08:03:36 51°16.6 2°44.752 9.8 27 16.5 101350 94
2008-08-25 08:03:40 51°16.607 2°44.733 11.7 279 16.5 101350 94
2008-08-25 08:03:46 51°16.617 2°44.706 12.6 23 16.5 101350 94
2008-08-25 08:03:51 51°16.625 2°44.682 10.5 277 16.5 101350 94
2008-08-25 08:03:55 51°16.632 2°44.664 10.7 27 16.5 101360 95
2008-08-25 08:04:01 51°16.642 2°44.636 10.6 282 16.5 101360 95
2008-08-25 08:04:05 51°16.648 2°44.617 12.6 28 16.5 101360 95
2008-08-25 08:04:11 51°16.658 2°44.59 13.7 281 16.5 101360 95
2008-08-25 08:04:16 51°16.666 2°44.566 13.8 25 16.5 101350 95
2008-08-25 08:04:20 51°16.672 2°44.548 11.3 281 16.5 101350 95
2008-08-25 08:04:25 51°16.68 2°44.524 10.9 26 16.5 101350 95
2008-08-25 08:04:31 51°16.69 2°44.496 11.7 280 16.5 101350 95
2008-08-25 08:04:36 51°16.698 2°44.473 13.6 28 16.5 101360 95
2008-08-25 08:04:40 51°16.705 2°44.454 11 282 16.5 101360 95
2008-08-25 08:04:45 51°16.713 2°44.431 13.5 21 16.5 101350 95
2008-08-25 08:04:51 51°16.724 2°44.404 13.5 282 16.5 101350 95
2008-08-25 08:04:56 51°16.733 2°44.381 13.9 27 16.5 101350 95
2008-08-25 08:05:00 51°16.74 2°44.363 13.2 284 16.5 101350 95
2008-08-25 08:05:05 51°16.749 2°44.34 11.1 22 16.6 101350 95
2008-08-25 08:05:11 51°16.76 2°44.313 14.6 285 16.6 101350 95
2008-08-25 08:05:16 51°16.769 2°44.291 13.7 25 16.5 101350 95
2008-08-25 08:05:20 51°16.776 2°44.272 12.9 281 16.5 101350 95
2008-08-25 08:05:25 51°16.784 2°44.25 13.7 25 16.5 101350 95
2008-08-25 08:05:31 51°16.794 2°44.222 12.6 278 16.5 101350 95
2008-08-25 08:05:36 51°16.803 2°44.199 12.9 22 16.5 101350 94
2008-08-25 08:05:40 51°16.809 2°44.18 14.1 285 16.5 101350 94
2008-08-25 08:05:45 51°16.818 2°44.157 14.1 24 16.5 101350 94
2008-08-25 08:05:50 51°16.826 2°44.134 13.3 282 16.5 101350 94
2008-08-25 08:05:56 51°16.837 2°44.106 12.5 235 16.6 101360 95
2008-08-25 08:06:00 51°16.843 2°44.088 12.8 282 16.6 101360 95
2008-08-25 08:06:05 51°16.852 2°44.065 14.1 24 16.6 101350 94
2008-08-25 08:06:11 51°16.863 2°44.037 13.5 277 16.6 101350 94
2008-08-25 08:06:16 51°16.872 2°44.015 12.4 22 16.6 101350 94
2008-08-25 08:06:20 51°16.879 2°43.997 13.4 280 16.6 101350 94
2008-08-25 08:06:25 51°16.888 2°43.974 12.5 23 16.6 101350 94
2008-08-25 08:06:31 51°16.899 2°43.946 11.1 281 16.6 101350 94
2008-08-25 08:06:36 51°16.907 2°43.923 13.3 23 16.6 101350 94
2008-08-25 08:06:40 51°16.914 2°43.905 13.1 280 16.6 101350 94
2008-08-25 08:06:46 51°16.925 2°43.878 12.9 29 16.6 101360 94
2008-08-25 08:06:51 51°16.934 2°43.856 11.4 280 16.6 101360 94
2008-08-25 08:06:56 51°16.942 2°43.833 9.8 28 16.6 101360 94
2008-08-25 08:07:00 51°16.949 2°43.815 10.5 277 16.6 101360 94
2008-08-25 08:07:05 51°16.958 2°43.792 12.1 28 16.6 101360 94
2008-08-25 08:07:11 51°16.969 2°43.765 10.6 279 16.6 101360 94
2008-08-25 08:07:16 51°16.978 2°43.742 12.6 26 16.6 101360 94
2008-08-25 08:07:20 51°16.985 2°43.724 14 281 16.6 101360 94
2008-08-25 08:07:25 51°16.994 2°43.701 13.8 26 16.6 101360 95
2008-08-25 08:07:30 51°17.003 2°43.678 12.5 282 16.6 101360 95
2008-08-25 08:07:36 51°17.013 2°43.651 11.6 24 16.6 101360 95
2008-08-25 08:07:40 51°17.02 2°43.633 13.4 280 16.6 101360 95
2008-08-25 08:07:45 51°17.029 2°43.61 11.9 27 16.6 101350 94
2008-08-25 08:07:50 51°17.038 2°43.587 13.8 281 16.6 101350 94
2008-08-25 08:07:56 51°17.048 2°43.56 14 25 16.6 101360 94
2008-08-25 08:08:01 51°17.057 2°43.537 13.8 284 16.6 101360 94
2008-08-25 08:08:05 51°17.064 2°43.519 14 21 16.6 101350 94
2008-08-25 08:08:11 51°17.075 2°43.491 11.7 282 16.6 101350 94
2008-08-25 08:08:15 51°17.082 2°43.474 13.8 26 16.6 101350 94
2008-08-25 08:08:20 51°17.091 2°43.451 13.7 284 16.6 101350 94
2008-08-25 08:08:25 51°17.1 2°43.429 10.1 25 16.6 101350 94
2008-08-25 08:08:31 51°17.112 2°43.402 15 284 16.6 101350 94
2008-08-25 08:08:36 51°17.121 2°43.38 11.7 26 16.6 101350 94
2008-08-25 08:08:41 51°17.13 2°43.358 14.1 283 16.6 101350 94
2008-08-25 08:08:45 51°17.138 2°43.341 12.5 22 16.6 101360 94
2008-08-25 08:08:51 51°17.15 2°43.314 14.6 279 16.6 101360 94
2008-08-25 08:08:56 51°17.159 2°43.292 11.3 25 16.6 101350 94
2008-08-25 08:09:00 51°17.167 2°43.275 14.1 282 16.6 101350 94
2008-08-25 08:09:06 51°17.178 2°43.248 11.5 25 16.6 101350 94
2008-08-25 08:09:11 51°17.187 2°43.227 13.2 285 16.6 101350 94
2008-08-25 08:09:16 51°17.196 2°43.205 13.3 27 16.6 101350 94
2008-08-25 08:09:20 51°17.204 2°43.187 12.9 281 16.6 101350 94
2008-08-25 08:09:25 51°17.213 2°43.165 14.1 21 16.6 101350 94
2008-08-25 08:09:31 51°17.225 2°43.139 11.3 279 16.6 101350 94
2008-08-25 08:09:36 51°17.234 2°43.117 11 26 16.6 101350 93
2008-08-25 08:09:41 51°17.244 2°43.095 12.8 285 16.6 101350 93
2008-08-25 08:09:45 51°17.251 2°43.078 11 25 16.6 101360 94
2008-08-25 08:09:51 51°17.263 2°43.051 14.1 280 16.6 101360 94
2008-08-25 08:09:56 51°17.272 2°43.03 13.6 28 16.6 101350 94
2008-08-25 08:10:00 51°17.28 2°43.012 13.4 280 16.6 101350 94
2008-08-25 08:10:05 51°17.289 2°42.99 11.8 26 16.6 101360 94
2008-08-25 08:10:10 51°17.299 2°42.969 13.6 282 16.6 101360 94
2008-08-25 08:10:16 51°17.31 2°42.942 13.8 25 16.6 101360 94
2008-08-25 08:10:21 51°17.32 2°42.921 12.3 283 16.6 101360 94
2008-08-25 08:10:25 51°17.328 2°42.904 10.8 24 16.7 101360 94
2008-08-25 08:10:31 51°17.34 2°42.879 12.7 280 16.7 101360 94
2008-08-25 08:10:36 51°17.35 2°42.857 11 24 16.7 101350 93
2008-08-25 08:10:40 51°17.358 2°42.841 12.2 277 16.7 101350 93
2008-08-25 08:10:45 51°17.368 2°42.82 12.6 27 16.7 101360 94
2008-08-25 08:10:51 51°17.381 2°42.795 12.6 281 16.7 101360 94
2008-08-25 08:10:56 51°17.391 2°42.774 13.9 29 16.7 101350 94
2008-08-25 08:11:00 51°17.4 2°42.758 13.3 282 16.7 101350 94
2008-08-25 08:11:05 51°17.411 2°42.737 13 24 16.7 101360 93
2008-08-25 08:11:11 51°17.424 2°42.713 12.2 277 16.7 101360 93
2008-08-25 08:11:16 51°17.436 2°42.693 11 29 16.7 101360 93
2008-08-25 08:11:20 51°17.444 2°42.676 10.2 277 16.7 101360 93
2008-08-25 08:11:26 51°17.457 2°42.651 12.1 21 16.7 101360 93
2008-08-25 08:11:31 51°17.468 2°42.63 11.7 283 16.7 101360 93
2008-08-25 08:11:36 51°17.478 2°42.609 13.6 26 16.7 101370 93
2008-08-25 08:11:40 51°17.487 2°42.592 12 279 16.7 101370 93
2008-08-25 08:11:45 51°17.497 2°42.571 10.9 28 16.7 101360 93
2008-08-25 08:11:51 51°17.509 2°42.545 10.5 278 16.7 101360 93
2008-08-25 08:11:56 51°17.519 2°42.524 13.1 24 16.7 101360 94
2008-08-25 08:12:00 51°17.528 2°42.507 11 280 16.7 101360 94
2008-08-25 08:12:05 51°17.538 2°42.486 11.8 25 16.7 101360 94
2008-08-25 08:12:11 51°17.551 2°42.461 12.9 282 16.7 101360 94
2008-08-25 08:12:16 51°17.562 2°42.44 11.2 28 16.8 101360 94
2008-08-25 08:12:20 51°17.571 2°42.423 10.7 276 16.8 101360 94
2008-08-25 08:12:25 51°17.581 2°42.403 13.5 28 16.7 101360 94
2008-08-25 08:12:31 51°17.594 2°42.378 12.7 277 16.7 101360 94
2008-08-25 08:12:36 51°17.604 2°42.357 13.2 25 16.8 101360 94
2008-08-25 08:12:41 51°17.614 2°42.336 13.2 276 16.8 101360 94
2008-08-25 08:12:45 51°17.623 2°42.319 13 28 16.8 101360 94
2008-08-25 08:12:50 51°17.633 2°42.298 13.1 280 16.8 101360 94
2008-08-25 08:12:56 51°17.645 2°42.273 11.8 28 16.8 101360 94
2008-08-25 08:13:00 51°17.653 2°42.257 14.6 281 16.8 101360 94
2008-08-25 08:13:05 51°17.664 2°42.235 11.3 24 16.8 101350 93
2008-08-25 08:13:11 51°17.675 2°42.21 12.1 285 16.8 101350 93
2008-08-25 08:13:16 51°17.685 2°42.189 13.8 22 16.8 101350 93
2008-08-25 08:13:20 51°17.693 2°42.171 12.1 281 16.8 101350 93
2008-08-25 08:13:26 51°17.706 2°42.147 13 28 16.8 101350 93
2008-08-25 08:13:31 51°17.716 2°42.125 13.9 281 16.8 101350 93
2008-08-25 08:13:36 51°17.727 2°42.105 14.2 26 16.8 101350 93
2008-08-25 08:13:40 51°17.735 2°42.088 10.6 280 16.8 101350 93
2008-08-25 08:13:45 51°17.747 2°42.069 10.8 28 16.7 101350 93
2008-08-25 08:13:51 51°17.76 2°42.045 10.4 276 16.7 101350 93
2008-08-25 08:13:56 51°17.772 2°42.025 13 23 16.8 101360 93
2008-08-25 08:14:00 51°17.781 2°42.009 10.6 284 16.8 101360 93
2008-08-25 08:14:05 51°17.792 2°41.989 10.5 22 16.8 101350 92
2008-08-25 08:14:11 51°17.806 2°41.965 14.5 279 16.8 101350 92
2008-08-25 08:14:16 51°17.817 2°41.945 14.4 26 16.8 101360 93
2008-08-25 08:14:20 51°17.826 2°41.928 11.9 276 16.8 101360 93
2008-08-25 08:14:25 51°17.838 2°41.908 12 25 16.8 101360 93
2008-08-25 08:14:31 51°17.851 2°41.884 10.9 280 16.8 101360 93
2008-08-25 08:14:36 51°17.862 2°41.864 13.3 25 16.8 101350 93
2008-08-25 08:14:40 51°17.871 2°41.848 14.7 282 16.8 101350 93
2008-08-25 08:14:45 51°17.882 2°41.827 11.8 25 16.8 101350 92
2008-08-25 08:14:51 51°17.895 2°41.803 11.8 276 16.8 101350 92
2008-08-25 08:14:55 51°17.904 2°41.786 13.9 28 16.8 101350 92
2008-08-25 08:15:01 51°17.916 2°41.761 12.4 281 16.8 101350 92
2008-08-25 08:15:05 51°17.925 2°41.744 13.3 25 16.8 101350 92
2008-08-25 08:15:10 51°17.935 2°41.723 13.6 285 16.8 101350 92
2008-08-25 08:15:16 51°17.948 2°41.698 12 23 16.8 101350 92
2008-08-25 08:15:20 51°17.957 2°41.681 14 286 16.8 101350 92
2008-08-25 08:15:25 51°17.967 2°41.66 11.6 23 16.8 101350 92
2008-08-25 08:15:31 51°17.979 2°41.634 11.6 285 16.8 101350 92
2008-08-25 08:15:36 51°17.989 2°41.613 11.8 25 16.8 101360 92
2008-08-25 08:15:40 51°17.998 2°41.596 13.7 280 16.8 101360 92
2008-08-25 08:15:46 51°18.01 2°41.57 13.3 24 16.8 101350 92
2008-08-25 08:15:51 51°18.02 2°41.549 14.7 285 16.8 101350 92
2008-08-25 08:15:56 51°18.03 2°41.528 13.5 23 16.8 101360 92
2008-08-25 08:16:00 51°18.038 2°41.511 15.2 282 16.8 101360 92
2008-08-25 08:16:05 51°18.049 2°41.49 11.6 24 16.8 101350 92
2008-08-25 08:16:11 51°18.061 2°41.465 14 283 16.8 101350 92
2008-08-25 08:16:16 51°18.072 2°41.445 12.7 28 16.8 101360 92
2008-08-25 08:16:20 51°18.081 2°41.428 11.5 280 16.8 101360 92
2008-08-25 08:16:25 51°18.091 2°41.407 11.7 27 16.8 101350 92
2008-08-25 08:16:31 51°18.104 2°41.382 13.3 282 16.8 101350 92
2008-08-25 08:16:36 51°18.115 2°41.361 13 22 16.8 101350 92
2008-08-25 08:16:40 51°18.123 2°41.344 12.7 286 16.8 101350 92
2008-08-25 08:16:45 51°18.134 2°41.324 10.7 28 16.8 101360 91
2008-08-25 08:16:50 51°18.144 2°41.303 13.1 282 16.8 101360 91
2008-08-25 08:16:56 51°18.156 2°41.277 13.8 26 16.8 101360 91
2008-08-25 08:17:00 51°18.165 2°41.261 13.6 284 16.8 101360 91
2008-08-25 08:17:05 51°18.175 2°41.24 14.4 23 16.9 101360 92
2008-08-25 08:17:11 51°18.187 2°41.215 14.9 282 16.9 101360 92
2008-08-25 08:17:15 51°18.195 2°41.198 14.5 27 16.9 101360 92
2008-08-25 08:17:21 51°18.207 2°41.172 15.2 278 16.9 101360 92
2008-08-25 08:17:25 51°18.215 2°41.155 13.2 26 16.9 101360 92
2008-08-25 08:17:31 51°18.227 2°41.13 12 282 16.9 101360 92
2008-08-25 08:17:36 51°18.238 2°41.109 13 27 16.9 101350 92
2008-08-25 08:17:41 51°18.248 2°41.088 12.6 282 16.9 101350 92
2008-08-25 08:17:45 51°18.257 2°41.072 15.3 26 16.8 101350 91
2008-08-25 08:17:51 51°18.269 2°41.047 11.7 285 16.8 101350 91
2008-08-25 08:17:56 51°18.28 2°41.027 14.7 22 16.9 101350 91
2008-08-25 08:18:00 51°18.288 2°41.011 11.9 284 16.9 101350 91
2008-08-25 08:18:05 51°18.299 2°40.991 11.3 26 16.8 101350 91
2008-08-25 08:18:11 51°18.312 2°40.967 14.2 284 16.8 101350 91
2008-08-25 08:18:16 51°18.323 2°40.947 11.2 26 16.8 101350 91
2008-08-25 08:18:20 51°18.332 2°40.931 13.5 278 16.8 101350 91
2008-08-25 08:18:25 51°18.342 2°40.911 11.3 30 16.8 101350 91
2008-08-25 08:18:31 51°18.354 2°40.887 13.1 281 16.8 101350 91
2008-08-25 08:18:36 51°18.364 2°40.866 15.2 23 16.9 101350 91
2008-08-25 08:18:40 51°18.372 2°40.849 15.1 281 16.9 101350 91
2008-08-25 08:18:45 51°18.382 2°40.829 14.4 25 16.9 101360 91
2008-08-25 08:18:51 51°18.394 2°40.804 11.7 282 16.9 101360 91
2008-08-25 08:18:56 51°18.403 2°40.783 14.9 28 16.9 101360 91
2008-08-25 08:19:01 51°18.413 2°40.762 14.5 280 16.9 101360 91
2008-08-25 08:19:05 51°18.421 2°40.744 13 28 16.9 101350 91
2008-08-25 08:19:10 51°18.43 2°40.723 12.5 279 16.9 101350 91
2008-08-25 08:19:16 51°18.441 2°40.697 13.7 26 16.9 101350 91
2008-08-25 08:19:21 51°18.45 2°40.675 14.9 277 16.9 101350 91
2008-08-25 08:19:25 51°18.458 2°40.657 13.3 23 16.9 101350 91
2008-08-25 08:19:31 51°18.469 2°40.631 14.6 278 16.9 101350 91
2008-08-25 08:19:36 51°18.478 2°40.61 12.2 26 16.9 101350 91
2008-08-25 08:19:40 51°18.486 2°40.592 11.8 279 16.9 101350 91
2008-08-25 08:19:45 51°18.495 2°40.571 14 23 16.9 101350 91
2008-08-25 08:19:51 51°18.506 2°40.544 14.7 282 16.9 101350 91
2008-08-25 08:19:56 51°18.515 2°40.522 14.4 23 16.9 101350 91
2008-08-25 08:20:00 51°18.522 2°40.505 11.1 284 16.9 101350 91
2008-08-25 08:20:05 51°18.532 2°40.483 14.6 23 16.9 101350 91
2008-08-25 08:20:11 51°18.543 2°40.457 12.8 280 16.9 101350 91
2008-08-25 08:20:16 51°18.552 2°40.436 16.1 24 16.9 101350 91
2008-08-25 08:20:20 51°18.56 2°40.419 13.5 286 16.9 101350 91
2008-08-25 08:20:26 51°18.572 2°40.394 14.4 20 16.9 101360 91
2008-08-25 08:20:31 51°18.581 2°40.373 15.7 285 16.9 101360 91
2008-08-25 08:20:36 51°18.591 2°40.352 15.5 24 16.9 101360 91
2008-08-25 08:20:41 51°18.6 2°40.33 13.2 279 16.9 101360 91
2008-08-25 08:20:45 51°18.607 2°40.313 13.5 26 16.9 101360 91
2008-08-25 08:20:51 51°18.618 2°40.287 11.3 280 16.9 101360 91
2008-08-25 08:20:56 51°18.628 2°40.265 11.3 28 16.9 101350 91
2008-08-25 08:21:00 51°18.635 2°40.247 12.4 284 16.9 101350 91
2008-08-25 08:21:05 51°18.645 2°40.226 13.9 26 16.9 101350 90
2008-08-25 08:21:11 51°18.656 2°40.199 12.3 286 16.9 101350 90
2008-08-25 08:21:16 51°18.665 2°40.177 13.8 25 16.9 101350 91
2008-08-25 08:21:20 51°18.673 2°40.16 11.6 283 16.9 101350 91
2008-08-25 08:21:25 51°18.682 2°40.137 11.8 26 16.9 101350 91
2008-08-25 08:21:31 51°18.694 2°40.111 12.1 280 16.9 101350 91
2008-08-25 08:21:36 51°18.704 2°40.089 11 30 16.9 101350 91
2008-08-25 08:21:41 51°18.714 2°40.068 13.5 280 16.9 101350 91
2008-08-25 08:21:45 51°18.722 2°40.051 11.3 24 16.9 101350 91
2008-08-25 08:21:50 51°18.733 2°40.03 11.3 277 16.9 101350 91
2008-08-25 08:21:56 51°18.746 2°40.005 12.6 233 16.9 101350 91
2008-08-25 08:22:00 51°18.754 2°39.988 12.1 278 16.9 101350 91
2008-08-25 08:22:05 51°18.765 2°39.967 14 23 16.9 101360 91
2008-08-25 08:22:11 51°18.778 2°39.942 14.3 279 16.9 101360 91
2008-08-25 08:22:16 51°18.789 2°39.921 14.1 30 16.9 101360 91
2008-08-25 08:22:21 51°18.8 2°39.9 14.5 281 16.9 101360 91
2008-08-25 08:22:25 51°18.808 2°39.883 13 24 16.9 101350 91
2008-08-25 08:22:31 51°18.82 2°39.857 10.9 279 16.9 101350 91
2008-08-25 08:22:36 51°18.83 2°39.835 14 28 16.9 101360 91
2008-08-25 08:22:40 51°18.838 2°39.818 13.1 281 16.9 101360 91
2008-08-25 08:22:46 51°18.85 2°39.793 11.9 25 16.9 101350 91
2008-08-25 08:22:51 51°18.86 2°39.771 14.8 284 16.9 101350 91
2008-08-25 08:22:56 51°18.87 2°39.75 12.5 27 16.9 101350 91
2008-08-25 08:23:00 51°18.879 2°39.733 13 285 16.9 101350 91
2008-08-25 08:23:05 51°18.888 2°39.711 15.7 27 16.9 101360 91
2008-08-25 08:23:11 51°18.899 2°39.684 12.1 280 16.9 101360 91
2008-08-25 08:23:16 51°18.908 2°39.661 13.7 29 16.9 101340 91
2008-08-25 08:23:20 51°18.914 2°39.643 16 279 16.9 101340 91
2008-08-25 08:23:25 51°18.923 2°39.62 16.4 27 16.9 101360 91
2008-08-25 08:23:31 51°18.933 2°39.593 15.8 282 16.9 101360 91
2008-08-25 08:23:36 51°18.941 2°39.569 13.6 27 16.9 101350 91
2008-08-25 08:23:40 51°18.947 2°39.551 16.3 282 16.9 101350 91
2008-08-25 08:23:45 51°18.955 2°39.527 11.7 25 16.9 101340 90
2008-08-25 08:23:51 51°18.964 2°39.5 12.6 278 16.9 101340 90
2008-08-25 08:23:56 51°18.972 2°39.477 12.5 24 16.9 101340 90
2008-08-25 08:24:01 51°18.98 2°39.453 14.7 284 16.9 101340 90
2008-08-25 08:24:05 51°18.986 2°39.434 13.1 27 16.9 101350 90
2008-08-25 08:24:10 51°18.993 2°39.411 14.7 283 16.9 101350 90
2008-08-25 08:24:16 51°19.003 2°39.383 15 22 16.9 101350 90
2008-08-25 08:24:20 51°19.009 2°39.364 12.4 281 16.9 101350 90
2008-08-25 08:24:26 51°19.018 2°39.337 15.1 23 16.9 101350 90
2008-08-25 08:24:31 51°19.026 2°39.313 14 282 16.9 101350 90
2008-08-25 08:24:35 51°19.033 2°39.295 12.6 28 16.9 101350 90
2008-08-25 08:24:40 51°19.041 2°39.272 13.4 279 16.9 101350 90
2008-08-25 08:24:45 51°19.049 2°39.249 14 23 16.9 101340 90
2008-08-25 08:24:51 51°19.059 2°39.222 13.5 280 16.9 101340 90
2008-08-25 08:24:56 51°19.067 2°39.199 14.3 23 16.9 101360 90
2008-08-25 08:25:00 51°19.074 2°39.18 13.7 285 16.9 101360 90
2008-08-25 08:25:06 51°19.084 2°39.153 15.4 21 16.9 101350 90
2008-08-25 08:25:11 51°19.092 2°39.13 17 283 16.9 101350 90
2008-08-25 08:25:16 51°19.101 2°39.107 13.3 27 16.9 101350 91
2008-08-25 08:25:20 51°19.107 2°39.089 13.5 280 16.9 101350 91
2008-08-25 08:25:25 51°19.115 2°39.066 12.8 23 16.9 101360 91
2008-08-25 08:25:31 51°19.125 2°39.039 15.9 284 16.9 101360 91
2008-08-25 08:25:36 51°19.133 2°39.015 11.8 27 16.9 101340 91
2008-08-25 08:25:41 51°19.141 2°38.992 15.9 279 16.9 101340 91
2008-08-25 08:25:45 51°19.148 2°38.973 17 26 16.9 101340 90
2008-08-25 08:25:51 51°19.158 2°38.946 13 279 16.9 101340 90
2008-08-25 08:25:56 51°19.166 2°38.922 13.1 27 16.9 101340 90
2008-08-25 08:26:00 51°19.172 2°38.904 14.8 277 16.9 101340 90
2008-08-25 08:26:05 51°19.181 2°38.882 12.2 27 16.9 101340 90
2008-08-25 08:26:11 51°19.191 2°38.855 14.7 279 16.9 101340 90
2008-08-25 08:26:15 51°19.198 2°38.837 14.5 24 16.9 101340 90
2008-08-25 08:26:21 51°19.209 2°38.809 15.2 280 16.9 101340 90
2008-08-25 08:26:25 51°19.215 2°38.791 14.2 28 16.9 101350 90
2008-08-25 08:26:31 51°19.226 2°38.764 11.8 286 16.9 101350 90
2008-08-25 08:26:36 51°19.234 2°38.741 14.8 35 16.9 101350 90
2008-08-25 08:26:40 51°19.241 2°38.722 14.8 280 16.9 101350 90
2008-08-25 08:26:46 51°19.251 2°38.695 11.3 26 16.9 101350 90
2008-08-25 08:26:51 51°19.26 2°38.672 14.7 284 16.9 101350 90
2008-08-25 08:26:55 51°19.266 2°38.653 12.8 23 16.9 101350 90
2008-08-25 08:27:00 51°19.275 2°38.631 12.5 282 16.9 101350 90
2008-08-25 08:27:05 51°19.283 2°38.607 12.5 26 16.9 101350 90
2008-08-25 08:27:11 51°19.293 2°38.58 12.7 277 16.9 101350 90
2008-08-25 08:27:16 51°19.302 2°38.557 12.1 25 16.9 101360 91
2008-08-25 08:27:20 51°19.309 2°38.538 15.3 280 16.9 101360 91
2008-08-25 08:27:25 51°19.317 2°38.515 14.9 23 16.9 101360 90
2008-08-25 08:27:31 51°19.328 2°38.488 11.5 278 16.9 101360 90
2008-08-25 08:27:36 51°19.336 2°38.465 11.1 26 16.9 101340 90
2008-08-25 08:27:40 51°19.344 2°38.447 14 284 16.9 101340 90
2008-08-25 08:27:45 51°19.352 2°38.424 11.1 26 17 101350 90
2008-08-25 08:27:51 51°19.362 2°38.396 15.3 284 17 101350 90
2008-08-25 08:27:56 51°19.371 2°38.373 12.8 21 17 101360 91
2008-08-25 08:28:00 51°19.377 2°38.354 13.8 284 17 101360 91
2008-08-25 08:28:05 51°19.386 2°38.332 13.7 25 17 101350 91
2008-08-25 08:28:11 51°19.397 2°38.304 14.9 284 17 101350 91
2008-08-25 08:28:16 51°19.406 2°38.282 14.2 20 17 101350 91
2008-08-25 08:28:20 51°19.413 2°38.264 11.5 277 17 101350 91
2008-08-25 08:28:25 51°19.423 2°38.241 16.3 24 17 101350 91
2008-08-25 08:28:31 51°19.434 2°38.214 11.7 280 17 101350 91
2008-08-25 08:28:36 51°19.443 2°38.192 12.5 27 17 101340 91
2008-08-25 08:28:41 51°19.452 2°38.169 12.6 281 17 101340 91
2008-08-25 08:28:45 51°19.46 2°38.151 13 23 17 101350 91
2008-08-25 08:28:51 51°19.47 2°38.124 15.7 280 17 101350 91
2008-08-25 08:28:56 51°19.479 2°38.102 12 26 17 101330 90
2008-08-25 08:29:00 51°19.487 2°38.084 15.4 279 17 101330 90
2008-08-25 08:29:05 51°19.495 2°38.061 15 25 17 101340 90
2008-08-25 08:29:11 51°19.506 2°38.034 15.1 281 17 101340 90
2008-08-25 08:29:16 51°19.515 2°38.011 14.7 28 17 101330 90
2008-08-25 08:29:20 51°19.522 2°37.994 13.9 280 17 101330 90
2008-08-25 08:29:26 51°19.533 2°37.966 13.7 28 17 101340 90
2008-08-25 08:29:31 51°19.542 2°37.944 14.7 282 17 101340 90
2008-08-25 08:29:36 51°19.551 2°37.921 12.2 29 17 101340 90
2008-08-25 08:29:40 51°19.558 2°37.903 15 284 17 101340 90
2008-08-25 08:29:45 51°19.567 2°37.881 14.7 21 17 101350 90
2008-08-25 08:29:51 51°19.578 2°37.854 11.5 285 17 101350 90
2008-08-25 08:29:56 51°19.587 2°37.832 14.4 20 17 101340 90
2008-08-25 08:30:00 51°19.594 2°37.814 14.7 280 17 101340 90
2008-08-25 08:30:05 51°19.604 2°37.791 14.3 24 17 101340 90
2008-08-25 08:30:11 51°19.614 2°37.765 13.6 280 17 101340 90
2008-08-25 08:30:16 51°19.624 2°37.743 13.4 24 17 101340 90
2008-08-25 08:30:20 51°19.631 2°37.725 14 284 17 101340 90
2008-08-25 08:30:25 51°19.64 2°37.702 11.5 29 17 101350 90
2008-08-25 08:30:31 51°19.651 2°37.676 11.2 277 17 101350 90
2008-08-25 08:30:36 51°19.66 2°37.655 14.5 27 17 101340 90
2008-08-25 08:30:40 51°19.667 2°37.638 11.4 279 17 101340 90
2008-08-25 08:30:45 51°19.675 2°37.617 14.9 26 17 101340 90
2008-08-25 08:30:51 51°19.685 2°37.593 12.3 283 17 101340 90
2008-08-25 08:30:55 51°19.692 2°37.578 11.1 26 17.1 101360 90
2008-08-25 08:31:01 51°19.702 2°37.554 14.7 280 17.1 101360 90
2008-08-25 08:31:05 51°19.708 2°37.539 12.5 22 17.1 101350 90
2008-08-25 08:31:11 51°19.718 2°37.516 14.6 278 17.1 101350 90
2008-08-25 08:31:16 51°19.726 2°37.497 13.6 23 17.1 101350 90
2008-08-25 08:31:20 51°19.732 2°37.482 13.2 279 17.1 101350 90
2008-08-25 08:31:25 51°19.74 2°37.462 10.8 24 17.1 101350 90
2008-08-25 08:31:31 51°19.75 2°37.439 11.4 280 17.1 101350 90
2008-08-25 08:31:36 51°19.757 2°37.42 12.5 24 17.1 101340 90
2008-08-25 08:31:40 51°19.764 2°37.404 13.9 282 17.1 101340 90
2008-08-25 08:31:46 51°19.773 2°37.382 14.1 21 17.1 101360 90
2008-08-25 08:31:51 51°19.781 2°37.362 11.6 277 17.1 101360 90
2008-08-25 08:31:56 51°19.788 2°37.343 14.2 24 17.1 101350 90
2008-08-25 08:32:00 51°19.794 2°37.329 14 281 17.1 101350 90
2008-08-25 08:32:05 51°19.801 2°37.311 13.8 21 17.1 101360 90
2008-08-25 08:32:11 51°19.81 2°37.29 13.3 284 17.1 101360 90
2008-08-25 08:32:16 51°19.817 2°37.274 11.6 25 17.1 101350 89
2008-08-25 08:32:20 51°19.823 2°37.261 12.9 278 17.1 101350 89
2008-08-25 08:32:25 51°19.829 2°37.245 13 28 17.1 101350 89
2008-08-25 08:32:31 51°19.837 2°37.227 13.4 282 17.1 101350 89
2008-08-25 08:32:36 51°19.844 2°37.212 11.6 27 17.1 101350 89
2008-08-25 08:32:40 51°19.849 2°37.2 12.3 283 17.1 101350 89
2008-08-25 08:32:45 51°19.856 2°37.185 13.5 24 17.1 101360 90
2008-08-25 08:32:51 51°19.864 2°37.168 13.3 280 17.1 101360 90
2008-08-25 08:32:56 51°19.87 2°37.153 9.9 30 17.1 101360 90
2008-08-25 08:33:00 51°19.875 2°37.142 12.8 282 17.1 101360 90
2008-08-25 08:33:05 51°19.882 2°37.128 11.8 25 17.1 101360 89
2008-08-25 08:33:11 51°19.89 2°37.111 15.6 283 17.1 101360 89
2008-08-25 08:33:16 51°19.896 2°37.097 13 25 17.1 101350 89
2008-08-25 08:33:21 51°19.902 2°37.083 12.2 286 17.1 101350 89
2008-08-25 08:33:25 51°19.907 2°37.072 14.7 22 17.2 101360 89
2008-08-25 08:33:31 51°19.915 2°37.055 14.8 285 17.2 101360 89
2008-08-25 08:33:36 51°19.921 2°37.041 11.4 24 17.1 101340 89
2008-08-25 08:33:40 51°19.926 2°37.029 11.3 282 17.1 101340 89
2008-08-25 08:33:46 51°19.934 2°37.013 10.5 25 17.1 101350 89
2008-08-25 08:33:51 51°19.94 2°37 10.4 279 17.1 101350 89
2008-08-25 08:33:55 51°19.944 2°36.99 10.2 27 17.1 101350 88
2008-08-25 08:34:01 51°19.951 2°36.976 9.6 280 17.1 101350 88
2008-08-25 08:34:05 51°19.956 2°36.967 13 22 17.1 101360 88
2008-08-25 08:34:11 51°19.962 2°36.955 12.7 285 17.1 101360 88
2008-08-25 08:34:16 51°19.968 2°36.945 11 247 17.2 101360 88
2008-08-25 08:34:20 51°19.972 2°36.939 11.2 284 17.2 101360 88
2008-08-25 08:34:25 51°19.978 2°36.931 8.1 252 17.2 101360 89
2008-08-25 08:34:31 51°19.985 2°36.924 11 279 17.2 101360 89
2008-08-25 08:34:36 51°19.991 2°36.919 12.5 256 17.2 101360 89
2008-08-25 08:34:41 51°19.997 2°36.915 10.4 278 17.2 101360 89
2008-08-25 08:34:45 51°20.001 2°36.913 9.6 255 17.2 101370 89
2008-08-25 08:34:51 51°20.008 2°36.91 11.1 282 17.2 101370 89
2008-08-25 08:34:56 51°20.013 2°36.907 8.3 258 17.2 101370 89
2008-08-25 08:35:00 51°20.017 2°36.906 8.2 284 17.2 101370 89
2008-08-25 08:35:05 51°20.022 2°36.904 9.8 257 17.3 101370 89
2008-08-25 08:35:11 51°20.027 2°36.902 9.7 279 17.3 101370 89
2008-08-25 08:35:16 51°20.032 2°36.9 12.7 260 17.3 101380 89
2008-08-25 08:35:21 51°20.036 2°36.899 10 283 17.3 101380 89
2008-08-25 08:35:25 51°20.039 2°36.898 10.4 258 17.3 101390 89
2008-08-25 08:35:31 51°20.044 2°36.898 8.9 280 17.3 101390 89
2008-08-25 08:35:36 51°20.047 2°36.897 13.1 259 17.3 101380 89
2008-08-25 08:35:41 51°20.051 2°36.897 9.1 280 17.3 101380 89
2008-08-25 08:35:45 51°20.053 2°36.896 12.8 259 17.3 101380 89
2008-08-25 08:35:51 51°20.057 2°36.895 11.2 278 17.3 101380 89
2008-08-25 08:35:56 51°20.06 2°36.895 13.7 258 17.3 101370 88
2008-08-25 08:36:00 51°20.063 2°36.894 13.5 281 17.3 101370 88
2008-08-25 08:36:05 51°20.066 2°36.894 13 257 17.3 101380 88
2008-08-25 08:36:11 51°20.069 2°36.894 10.1 284 17.3 101380 88
2008-08-25 08:36:16 51°20.072 2°36.893 11.1 256 17.3 101380 88
2008-08-25 08:36:20 51°20.074 2°36.893 10.7 280 17.3 101380 88
2008-08-25 08:36:26 51°20.077 2°36.893 12.9 255 17.2 101370 87
2008-08-25 08:36:31 51°20.08 2°36.894 11.2 278 17.2 101370 87
2008-08-25 08:36:36 51°20.082 2°36.894 13.2 256 17.2 101370 87
2008-08-25 08:36:40 51°20.083 2°36.895 13.1 284 17.2 101370 87
2008-08-25 08:36:46 51°20.086 2°36.896 11.6 256 17.2 101370 87
2008-08-25 08:36:51 51°20.088 2°36.897 10 282 17.2 101370 87
2008-08-25 08:36:56 51°20.089 2°36.899 10.7 255 17.2 101380 87
2008-08-25 08:37:00 51°20.091 2°36.9 10.1 276 17.2 101380 87
2008-08-25 08:37:05 51°20.093 2°36.901 9.7 253 17.2 101370 87
2008-08-25 08:37:11 51°20.095 2°36.902 9 280 17.2 101370 87
2008-08-25 08:37:16 51°20.097 2°36.904 11.9 251 17.2 101370 87
2008-08-25 08:37:21 51°20.098 2°36.905 9.6 280 17.2 101370 87
2008-08-25 08:37:25 51°20.1 2°36.906 10.1 252 17.2 101370 87
2008-08-25 08:37:30 51°20.101 2°36.908 11.5 283 17.2 101370 87
2008-08-25 08:37:36 51°20.103 2°36.91 10 253 17.2 101370 87
2008-08-25 08:37:40 51°20.105 2°36.911 10.3 280 17.2 101370 87
2008-08-25 08:37:45 51°20.106 2°36.912 11.4 254 17.2 101370 87
2008-08-25 08:37:51 51°20.108 2°36.914 11.4 286 17.2 101370 87
2008-08-25 08:37:56 51°20.11 2°36.915 10.9 254 17.2 101370 87
2008-08-25 08:38:01 51°20.111 2°36.917 12.1 283 17.2 101370 87
2008-08-25 08:38:05 51°20.113 2°36.918 9.9 254 17.3 101370 87
2008-08-25 08:38:11 51°20.115 2°36.92 11.6 278 17.3 101370 87
2008-08-25 08:38:16 51°20.116 2°36.922 14.1 254 17.3 101370 87
2008-08-25 08:38:20 51°20.117 2°36.924 10.7 278 17.3 101370 87
2008-08-25 08:38:25 51°20.119 2°36.925 13.4 256 17.3 101370 87
2008-08-25 08:38:31 51°20.121 2°36.928 12.4 281 17.3 101370 87
2008-08-25 08:38:36 51°20.123 2°36.93 10.4 257 17.3 101380 87
2008-08-25 08:38:40 51°20.124 2°36.932 8.9 280 17.3 101380 87
2008-08-25 08:38:46 51°20.126 2°36.934 9.1 256 17.3 101370 87
2008-08-25 08:38:51 51°20.128 2°36.936 8.5 280 17.3 101370 87
2008-08-25 08:38:56 51°20.129 2°36.938 9.9 258 17.3 101370 87